Regional Weather Roundup
Issued by NWS Northern Indiana

Home | Current Version | Previous Version | Text Only | Print | Product List | Glossary Off
Versions: 1 2 3 4 5 6 7 8 9 10 11 12 13 14 15 16 17 18 19 20 21 22 23 24 25 26 27 28 29 30 31 32 33 34 35 36 37 38 39 40 41 42 43 44 45 46 47 48 49 50

000
ASUS43 KIWX 272210
RWRIWX

KIWX WEATHER ROUNDUP
NATIONAL WEATHER SERVICE NORTHERN INDIANA
500 PM EST SAT DEC 27 2014

NOTE: "FAIR" INDICATES FEW OR NO CLOUDS BELOW 12,000 FEET WITH NO
SIGNIFICANT WEATHER AND/OR OBSTRUCTIONS TO VISIBILITY.

* THESE STATIONS ARE NOT UNDER NWS QUALITY CONTROL. THEY ALSO MAY NOT
  REPORT WEATHER SUCH AS PRECIPITATION OR FOG.

INZ001>027-272300-
NORTHERN INDIANA

CITY           SKY/WX    TMP DP  RH WIND       PRES   REMARKS
GARY*          CLOUDY    39  27  60 W23G41    30.05R
VALPARAISO     CLOUDY    37  33  85 W12       30.05R
MICHIGAN CITY* DRIZZLE   37  32  81 W10G16    30.04S
LAPORTE*       LGT RAIN  39  36  88 W12       30.04R
KNOX*          CLOUDY    38  31  78 W18G24    30.04R
SOUTH BEND     LGT RAIN  41  34  76 W24G31    30.04R
GOSHEN         CLOUDY    42  40  92 W17       30.03R FOG
MONTICELLO*    LGT RAIN  40  38  95 W9        30.06F
LOGANSPORT*    CLOUDY    41  37  87 W12       30.08R FOG
ROCHESTER*     LGT RAIN  41  41 100 W15G21    30.07R
WARSAW*        LGT RAIN  43  43 100 W17G32    30.03R
ANGOLA*        CLOUDY    46  45  93 W17       29.98R
FORT WAYNE     DRIZZLE   47  44  90 SW16      30.04R
HUNTINGTON*    CLOUDY    46  42  86 SW9       30.03R FOG
PERU/GRISSOM   LGT RAIN  45  45 100 W16G35    30.06R FOG
MARION*        CLOUDY    47  46  95 W14G21    30.06R FOG

$$
INZ028>050-272300-
CENTRAL INDIANA

CITY           SKY/WX    TMP DP  RH WIND       PRES   REMARKS
LAFAYETTE      CLOUDY    40  39  97 W9        30.07F FOG
KOKOMO*        CLOUDY    46  45  93 W15       30.06R
MUNCIE*        LGT RAIN  47  45  93 SW10      30.06R FOG
INDIANAPOLIS   DRZL/FOG  46  45  96 W12       30.08R VSB 1/2

$$
MIZ043>046-050>051-056>058-064>065-071>073-077>080-272300-
SOUTHWEST LOWER MICHIGAN

CITY           SKY/WX    TMP DP  RH WIND       PRES   REMARKS
BATTLE CREEK   LGT RAIN  44  40  85 W25G33    29.97R
BENTON HARBOR  CLOUDY    38  33  82 W21G33    30.02R
COLDWATER*     LGT RAIN  47  46  96 SW15      29.97R
HILLSDALE*     CLOUDY    47  47  98 W15       29.97R
HOLLAND        CLOUDY    40  33  76 W22       30.00R
GRAND RAPIDS   CLOUDY    39  37  92 W23G36    29.95R
KALAMAZOO      LGT RAIN  42  37  82 W18G29    29.99R
STURGIS*       DRIZZLE   46  45  93 W17       29.98R
THREE RIVERS*  LGT RAIN  43  40  90 W16G28    30.01R

$$
OHZ001>008-015>018-024>025-272300-
NORTHWEST OHIO

CITY           SKY/WX    TMP DP  RH WIND       PRES   REMARKS
WAUSEON*       CLOUDY    46  46 100 SW15      29.99S
DEFIANCE       CLOUDY    48  44  86 SW14G24   30.02R
FINDLAY        CLOUDY    49  44  83 SW12      30.02R
TOLEDO EXPRESS CLOUDY    47  44  90 SW15G23   29.99R
TOLEDO METCALF CLOUDY    49  44  83 SW18G25   30.01S
LIMA           CLOUDY    49  44  83 SW13      30.04R

$$
AND FOR LAKE MICHIGAN COASTAL AND OPEN LAKE BUOY OBSERVATIONS

STATION/POSITION TEMP    WIND        PRES    VSBY  WAVE
                 AIR SEA DIR/SP/G                  HT/PER
                 (F)     (DEG/KT/KT) (MB)    (MI)  (FT/S)
CALUMET HARBOR    38     240/ 14/ 19 1016.1R
MICHIGAN CITY     38     220/ 23/ 28   N/A
SAINT JOSEPH      39     220/ 21/ 25 1017.3R

$$
&&



USA.gov is the U.S. government's official web portal to all federal, state and local government web resources and services.